Weather History for KGEZ - January, 2014

Change the Weather History Date:

Sunday, January 19, 2014

  Actual Average Record
Temperature  
Mean Temperature 28 °F 29 °F  
Max Temperature 36 °F 36 °F 56 °F (2013)
Min Temperature 19 °F 21 °F 3 °F (2003)
Degree Days  
Heating Degree Days 37 36  
Month to date heating degree days 730 684  
Since 1 July heating degree days 2809 2788  
Cooling Degree Days 0 0  
Month to date cooling degree days 0 0  
Year to date cooling degree days 0 0  
Moisture  
Dew Point 19 °F    
Average Humidity 72    
Maximum Humidity 85    
Minimum Humidity 59    
Precipitation  
Precipitation 0.00 in 0.08 in 0.30 in (2000)
Month to date precipitation 1.98 1.72  
Year to date precipitation 1.98 1.72  
Sea Level Pressure  
Sea Level Pressure 29.87 in    
Wind  
Wind Speed 14 mph (WSW)    
Max Wind Speed 22 mph    
Max Gust Speed 27 mph    
Visibility 10 miles    
Events      
T = Trace of Precipitation, MM = Missing Value Source: NWS Daily Summary

Daily Weather History Graph

Daily Weather History Graph

Search for Another Location

Airport or City:

Trip Planner

Search our weather history database for the weather conditions in past years. The results will help you decide how hot, cold, wet, or windy it might be!

Date:

Astronomy

Jan. 19, 2014 Rise Set
Actual Time 8:00 AM EST 5:48 PM EST
Civil Twilight 7:30 AM EST 6:17 PM EST
Nautical Twilight 6:58 AM EST 6:50 PM EST
Astronomical Twilight 6:25 AM EST 7:22 PM EST
Moon 9:24 PM EST (1/19) 9:30 AM EST (1/19)
Length of Visible Light 10h 46m
Length of Day
9h 47m
Waning Gibbous, 89% of the Moon is Illuminated
Jan 19
Waning Gibbous
Jan 24
Last Quarter
Jan 30
New
Feb 6
First Quarter
Feb 14
Full

Hourly Weather History & Observations

Time (EST) Temp. Windchill Dew Point Humidity Pressure Visibility Wind Dir Wind Speed Gust Speed Precip Events Conditions
12:31 AM 28.9 °F 25.2 °F 25.0 °F 85% 29.74 in 8.0 mi SW 3.5 mph - N/A   Overcast
12:53 AM 28.9 °F 23.9 °F 25.0 °F 85% 29.77 in 8.0 mi SW 4.6 mph - N/A   Overcast
1:53 AM 28.9 °F 20.4 °F 25.0 °F 85% 29.79 in 7.0 mi WNW 9.2 mph - N/A   Overcast
2:53 AM 28.0 °F 17.5 °F 23.0 °F 81% 29.83 in 10.0 mi NW 12.7 mph - N/A   Overcast
3:53 AM 26.1 °F 15.0 °F 19.9 °F 78% 29.87 in 10.0 mi NNW 12.7 mph - N/A   Overcast
4:53 AM 25.0 °F 15.5 °F 19.0 °F 78% 29.90 in 10.0 mi WNW 9.2 mph - N/A   Overcast
5:53 AM 23.0 °F 10.6 °F 18.0 °F 81% 29.93 in 10.0 mi WNW 13.8 mph - N/A   Overcast
6:26 AM 21.9 °F 8.7 °F 17.1 °F 82% 29.92 in 9.0 mi WNW 15.0 mph - N/A   Overcast
6:53 AM 21.0 °F 6.6 °F 16.0 °F 81% 29.97 in 10.0 mi WNW 17.3 mph - N/A   Overcast
7:53 AM 19.9 °F 5.7 °F 15.1 °F 81% 29.99 in 9.0 mi WNW 16.1 mph - N/A   Overcast
8:07 AM 19.0 °F 6.8 °F 14.0 °F 81% 29.94 in 10.0 mi West 11.5 mph - N/A   Overcast
8:53 AM 19.9 °F 8.6 °F 15.1 °F 81% 29.98 in 8.0 mi WSW 10.4 mph - N/A   Overcast
9:53 AM 19.9 °F 9.3 °F 15.1 °F 81% 29.99 in 9.0 mi WSW 9.2 mph - N/A   Overcast
10:04 AM 21.0 °F 8.6 °F 15.1 °F 78% 29.96 in 10.0 mi SW 12.7 mph - N/A   Overcast
10:53 AM 21.9 °F 7.3 °F 15.1 °F 75% 29.99 in 10.0 mi SW 18.4 mph - N/A   Overcast
11:38 AM 23.0 °F 9.6 °F 16.0 °F 74% 29.96 in 10.0 mi SW 16.1 mph - N/A   Scattered Clouds
11:53 AM 23.0 °F 10.1 °F 16.0 °F 74% 29.99 in 10.0 mi SW 15.0 mph - N/A   Partly Cloudy
12:53 PM 26.1 °F 14.0 °F 17.1 °F 69% 29.94 in 10.0 mi SW 15.0 mph - N/A   Clear
1:53 PM 28.0 °F 15.3 °F 18.0 °F 66% 29.92 in 10.0 mi SW 18.4 mph - N/A   Clear
2:53 PM 30.9 °F 19.4 °F 19.0 °F 61% 29.87 in 10.0 mi SW 17.3 mph - N/A   Clear
3:53 PM 32.0 °F 20.5 °F 19.9 °F 61% 29.86 in 10.0 mi SW 18.4 mph 27.6 mph N/A   Clear
4:53 PM 32.0 °F 22.1 °F 19.9 °F 61% 29.83 in 10.0 mi South 13.8 mph - N/A   Clear
5:53 PM 30.9 °F 19.4 °F 21.0 °F 67% 29.82 in 10.0 mi South 17.3 mph - N/A   Clear
6:53 PM 30.9 °F 19.4 °F 21.9 °F 69% 29.81 in 10.0 mi South 17.3 mph - N/A   Clear
7:53 PM 32.0 °F 20.8 °F 23.0 °F 69% 29.78 in 10.0 mi SSW 17.3 mph - N/A   Clear
8:53 PM 32.0 °F 21.2 °F 21.9 °F 66% 29.77 in 10.0 mi SSW 16.1 mph - N/A   Clear
9:53 PM 30.9 °F 22.2 °F 21.0 °F 67% 29.77 in 10.0 mi South 10.4 mph - N/A   Clear
10:53 PM 34.0 °F 24.2 °F 21.9 °F 61% 29.75 in 10.0 mi SW 15.0 mph - N/A   Clear
11:53 PM 35.1 °F 25.9 °F 23.0 °F 61% 29.73 in 10.0 mi SSW 13.8 mph - N/A   Clear